Overview Statistics Trail Chart Weather Telemetry Raw packets
 

This is the latest recevied weather packets stored in our database for station/object HI3LT-13. If no packets are shown the sender has not sent any weather packets the latest 10 day(s).

<< 20 21 22 23 24 25 26 >>
Time Temp. Humidity Pressure Rain* Wind** Luminosity Snow
1788308082 26.11° C 78% 1015 hPa 0 mm - - -
1788307481 26.11° C 78% 1015 hPa 0 mm - - -
1788306880 26.11° C 78% 1015 hPa 0 mm - - -
1788306280 26.11° C 78% 1015 hPa 0 mm - - -
1788305679 28.89° C 76% 1015 hPa 0 mm - - -
1788305078 28.89° C 76% 1014 hPa 0 mm - - -
1788304477 29.44° C 74% 1014 hPa 0 mm - - -
1788303876 27.78° C 70% 1014 hPa 0 mm - - -
1788303275 27.78° C 70% 1014 hPa 0 mm - - -
1788302675 27.78° C 70% 1014 hPa 0 mm - - -
1788302074 27.78° C 70% 1014 hPa 0 mm - - -
1788301473 27.78° C 70% 1014 hPa 0.25 mm - - -
1788300872 27.78° C 74% 1014 hPa 0.25 mm - - -
1788300271 27.78° C 74% 1014 hPa 0.25 mm - - -
1788299069 27.78° C 74% 1014 hPa 0.25 mm - - -
1788298468 28.33° C 74% 1014 hPa 0 mm - - -
1788297867 30° C 69% 1013 hPa 0 mm - - -
1788297266 31.11° C 66% 1013 hPa 0 mm - - -
1788296667 30° C 74% 1013 hPa 0 mm - - -
1788296064 30.56° C 74% 1013 hPa 0 mm - - -
1788295462 30.56° C 74% 1013 hPa 0 mm - - -
1788294861 32.78° C 66% 1013 hPa 0 mm - - -
1788294346 32.78° C 66% 1013 hPa 0 mm - - -
1788293744 33.89° C 57% 1013 hPa 0 mm - - -
1788293144 33.89° C 58% 1013 hPa 0 mm - - -

* Rain latest hour (hover to see other rain measurements)
** Current wind speed in m/s (hover to see current wind gust speed)